Regional Weather Roundup
Issued by NWS

Home | Current Version | Previous Version | Graphics & Text | Print | Product List | Glossary On
Versions: 1 2 3 4 5 6 7 8 9 10 11 12 13 14 15 16 17 18 19 20 21 22 23 24 25 26 27
000
ASUS45 KSLC 212110
RWRUT

UTAH REGIONAL WEATHER ROUNDUP
NATIONAL WEATHER SERVICE SALT LAKE CITY UT
300 PM MDT FRI JUL 21 2017

UTZ001>011-023>025-212200-

NORTHERN UTAH

CITY           SKY/WX    TMP DP  RH WIND       PRES   REMARKS
BRIGHAM CITY   SUNNY     92  40  16 CALM      30.06S
HILL AFB       SUNNY     90  53  28 NW5       30.09F
LOGAN          SUNNY     92  43  18 VRB5      30.07F
OGDEN          SUNNY     91  52  26 VRB7      30.05F
SALT LAKE CITY MOSUNNY   95  53  24 NW10G17   30.02F HX  92
TOOELE VALLEY  SUNNY     90  54  29 N9G16     30.05F
WENDOVER       SUNNY     92  39  15 SE10      30.05F
HEBER CITY     SUNNY     91  45  19 W6        30.11S
WEST JORDAN    SUNNY     91  62  38 NW7       30.06F HX  91

$$

UTZ011>015-024>027-212200-

CENTRAL/NORTHEAST UTAH

CITY           SKY/WX    TMP DP  RH WIND       PRES   REMARKS
PROVO AIRPORT  SUNNY     92  52  25 N5        30.05F
MOAB/CANYONLAN SUNNY     92  49  22 SE6       30.02F
DELTA          SUNNY     91  41  17 CALM      30.06F
PRICE          PTSUNNY   86  50  28 W5        30.16F
ROOSEVELT      CLOUDY    82  45  26 N15G24    30.15R
VERNAL         CLOUDY    87  47  24 NW18G26   30.12F

$$

UTZ013>016-019>022-027-212200-

SOUTHERN UTAH

CITY           SKY/WX    TMP DP  RH WIND       PRES   REMARKS
BRYCE CANYON   CLOUDY    70  52  52 SE10      30.33S
CEDAR CITY     SUNNY     89  48  24 MISG      30.13F
MILFORD        SUNNY     94  46  19 CALM      30.06F HX  90
ST GEORGE      CLEAR    101  50  18 W12       29.93F HX  98
HANKSVILLE     MOSUNNY   91  50  24 SW6       30.06F
BLANDING       MOSUNNY   80  50  34 W7        30.25F

$$

REGIONAL REPORTS     COLORADO/ARIZONA

CITY           SKY/WX    TMP DP  RH WIND       PRES   REMARKS
CRAIG, CO      CLOUDY    85  45  24 W8        30.16F
GRAND JUNCTION CLOUDY    92  48  22 W9        30.06F
RIFLE, CO      CLOUDY    84  51  31 NE6       30.14F
MONTROSE, CO   CLOUDY    73  51  46 S21G30    30.21R
CORTEZ, CO     CLOUDY    81  55  40 N14G25    30.17F THUNDER
COLORADO CITY    N/A     95  46  18 NW8G16    30.13F HX  91
PAGE, AZ       MOSUNNY   94  52  24 N7        30.03F HX  91
GRAND CANYON   PTSUNNY   78  55  44 N8        30.27F
KINGMAN, AZ    SUNNY     96  54  24 SW15G24   30.03F HX  94
FLAGSTAFF, AZ  LGT RAIN  61  58  90 S8        30.30F

$$

REGIONAL REPORTS    NEVADA/IDAHO/WYOMING

CITY           SKY/WX    TMP DP  RH WIND       PRES   REMARKS
LAS VEGAS, NV  MOSUNNY  102  50  17 CALM      29.89F HX  99
ELY, NY        SUNNY     88  36  15 SE6       30.17F
ELKO, NV       SUNNY     93  14   5 SW6       30.10F
POCATELLO, ID  SUNNY     90  30  11 SW12G17   30.11F
BURLEY, ID     SUNNY     86  39  19 NW6       30.08F
FORT BRIDGER,  MOCLDY    83  53  35 S16G22    30.28F
EVANSTON, WY   CLOUDY    81  47  30 N9        30.25F
ROCK SPRINGS,  CLOUDY    81  45  28 NE5       30.24F
KEMMERER, WY     N/A     82  30  15 NW12      30.28F

$$




USA.gov is the U.S. government's official web portal to all federal, state and local government web resources and services.